Regional Weather Roundup
Issued by NWS

Home | Current Version | Previous Version | Graphics & Text | Print | Product List | Glossary On
Versions: 1 2 3 4 5 6 7 8 9 10 11 12 13 14 15 16 17 18 19 20 21 22 23 24 25 26 27 28 29 30 31 32 33 34 35 36 37 38 39 40 41 42 43 44 45 46 47 48 49 50
000
ASUS44 KMEG 251810
RWRTN
TENNESSEE HOURLY STATE WEATHER ROUNDUP
NATIONAL WEATHER SERVICE MEMPHIS TN
100 PM CDT SUN JUN 25 2017

TNZ002-004-019-021-049-052-054-088>092-251900-
WEST TENNESSEE

CITY           SKY/WX    TMP DP  RH WIND       PRES   REMARKS
MEMPHIS INTL   MOSUNNY   84  55  36 NE9       30.25S
NWS MEMPHIS      N/A     82 N/A N/A MISG        N/A
JACKSON        SUNNY     84  53  34 MISG      30.25S
SOMERVILLE     SUNNY     81  55  41 VRB7      30.24F
COVINGTON      SUNNY     81  54  39 CALM      30.25F HAZE
UNION CITY     SUNNY     81  50  34 NW6       30.23F
BOLIVAR        SUNNY     82  50  32 VRB6G12   30.24S
PARIS          SUNNY     79  52  38 NW7       30.24S
HUNTINGDON     SUNNY     81  50  34 NE6       30.23F
LEXINGTON      SUNNY     81  50  34 VRB3G13   30.24S
SELMER         SUNNY     79  54  41 VRB6      30.24S
SAVANNAH       SUNNY     81  55  41 N8G15     30.23F
$$

TNZ008-025-027-028-033-062-065-066-251900-
NORTH MIDDLE TENNESSEE

CITY           SKY/WX    TMP DP  RH WIND       PRES   REMARKS
NASHVILLE      MOSUNNY   82  49  31 N14       30.23F
PORTLAND       SUNNY     79  46  31 N7        30.22F
CLARKSVILLE    SUNNY     80  48  32 VRB5      30.23S
SMYRNA         SUNNY     80  49  33 N10G17    30.23F
COOKEVILLE     SUNNY     77  52  41 VRB7G14   30.23S
GALLATIN       SUNNY     81  48  32 CALM      30.25S
CROSSVILLE     SUNNY     73  47  39 N10G16    30.26S
$$

TNZ061-075-076-078-094-096-097-251900-
SOUTH MIDDLE TENNESSEE

CITY           SKY/WX    TMP DP  RH WIND       PRES   REMARKS
FAYETTEVILLE   SUNNY     77  52  41 NW13      30.22S
TULLAHOMA      SUNNY     75  48  38 N15       30.23F
WINCHESTER     SUNNY     77  54  44 N10         N/A
MCMINNVILLE    SUNNY     77  55  47 N8        30.23F
COLUMBIA       SUNNY     79  50  36 VRB6G14   30.21F
SHELBYVILLE    SUNNY     77  50  38 N13       30.22F
$$

TNZ017-018-042-046-047-251900-
NORTHEAST TENNESSEE

CITY           SKY/WX    TMP DP  RH WIND       PRES   REMARKS
TRI CITIES     CLOUDY    75  54  47 W8        30.20S
ELIZABETHTON   CLOUDY    73  57  56 NW7       30.20F
$$

TNZ012-013-036-069-073-074-251900-
CENTRAL EAST TENNESSEE

CITY           SKY/WX    TMP DP  RH WIND       PRES   REMARKS
KNOXVILLE      CLOUDY    73  56  54 N6        30.20F
OAK RIDGE      PTSUNNY   78  54  43 VRB3      30.21F
DOWNTOWN KNOXV MOSUNNY   75  59  57 CALM      30.20S
GATLINBURG     SUNNY     73  55  53 NW3       30.20F
MORRISTOWN     MOSUNNY   75  52  43 N9        30.20S
JACKSBORO      SUNNY     77  52  41 VRB3      30.24F
$$

TNZ083-085-099-251900-
SOUTHEAST TENNESSEE

CITY           SKY/WX    TMP DP  RH WIND       PRES   REMARKS
CHATTANOOGA    PTSUNNY   75  55  49 NE12      30.20F
$$

SKY/WX REPORTED AS FAIR MEANS FEW OR NO CLOUDS BELOW
12 THOUSAND FEET.





USA.gov is the U.S. government's official web portal to all federal, state and local government web resources and services.